sat.trackr.live / text

‹ back to catalog

STARLINK-4790

NORAD 53859 · 2022-114AT

PAYLOAD ACTIVE UNKNOWN

§ Identity

Operator
Country
US
Launch date
2022-09-19
Launch site
AFETR
Launch vehicle
Mass (kg)
RCS (m²)

Purposes: comms

External: N2YO · Heavens-Above · Gunter

§ Orbital elements

Epoch: 2026-09-20T21:24:49.226688Z

Period
94.01 min
Inclination
53.1596°
Eccentricity
0.0001175
Mean motion
15.31713089 rev/d
Perigee alt
469.9 km
Apogee alt
471.5 km
Semi-major
6,848.8 km
B*
3.7326e-5
RAAN
122.1452°
Arg perigee
88.2742°
Mean anomaly
271.8394°
Rev number
22,265

§ Raw data

STARLINK-47901 53859U 22114AT  26263.89223642  .00000794  00000+0  37326-4 0  99992 53859  53.1596 122.1452 0001175  88.2742 271.8394 15.31713089222652

JSON: /api/v1/satellites/53859 · /tle

For live sub-satellite position, see the globe view (requires WebGL).

§ Visibility from observer

Set your observer location to see the next 7 days of passes ≥ 10°. The values pass through the URL so the page stays shareable.

No JS? Fill the form by hand. The geolocation button needs JavaScript.